This is the latest recevied weather packets stored in our database for station/object N6RDS-8. If no packets are shown the sender has not sent any weather packets the latest 10 day(s).
| Time | Temp. | Humidity | Pressure | Rain* | Wind** | Luminosity | Snow |
|---|---|---|---|---|---|---|---|
| 1778132532 | 12.78° C | 38% | 1019.8 hPa | 0 mm | - | 0 W/m² | - |
| 1778132230 | 12.78° C | 37% | 1019.9 hPa | 0 mm | - | 0 W/m² | - |
| 1778131927 | 13.33° C | 37% | 1019.8 hPa | 0 mm | - | 0 W/m² | - |
| 1778131626 | 13.33° C | 36% | 1019.9 hPa | 0 mm | - | 0 W/m² | - |
| 1778131322 | 13.89° C | 36% | 1019.8 hPa | 0 mm | - | 0 W/m² | - |
| 1778131020 | 13.33° C | 36% | 1019.8 hPa | 0 mm | - | 0 W/m² | - |
| 1778130716 | 13.89° C | 36% | 1019.8 hPa | 0 mm | - | 0 W/m² | - |
| 1778130413 | 13.33° C | 37% | 1019.6 hPa | 0 mm | - | 0 W/m² | - |
| 1778130110 | 12.78° C | 38% | 1019.8 hPa | 0 mm | - | 0 W/m² | - |
| 1778129807 | 12.22° C | 39% | 1019.7 hPa | 0 mm | - | 0 W/m² | - |
| 1778129503 | 12.78° C | 39% | 1019.6 hPa | 0 mm | - | 0 W/m² | - |
| 1778129200 | 13.33° C | 38% | 1019.7 hPa | 0 mm | - | 0 W/m² | - |
| 1778128897 | 13.89° C | 37% | 1019.6 hPa | 0 mm | - | 0 W/m² | - |
| 1778128593 | 13.89° C | 36% | 1019.6 hPa | 0 mm | - | 0 W/m² | - |
| 1778128285 | 13.33° C | 36% | 1019.5 hPa | 0 mm | - | 0 W/m² | - |
| 1778127981 | 12.78° C | 37% | 1019.4 hPa | 0 mm | - | 0 W/m² | - |
| 1778127676 | 12.22° C | 39% | 1019.3 hPa | 0 mm | - | 0 W/m² | - |
| 1778127373 | 12.78° C | 37% | 1019.4 hPa | 0 mm | - | 0 W/m² | - |
| 1778127070 | 13.89° C | 36% | 1019.1 hPa | 0 mm | - | 0 W/m² | - |
| 1778126767 | 14.44° C | 35% | 1019.1 hPa | 0 mm | - | 0 W/m² | - |
| 1778126463 | 14.44° C | 35% | 1019.3 hPa | 0 mm | - | 0 W/m² | - |
| 1778126159 | 15.56° C | 33% | 1019.1 hPa | 0 mm | - | 0 W/m² | - |
| 1778125855 | 16.11° C | 34% | 1019.1 hPa | 0 mm | - | 0 W/m² | - |
| 1778125552 | 16.67° C | 32% | 1018.8 hPa | 0 mm | - | 0 W/m² | - |
| 1778125250 | 16.67° C | 32% | 1019 hPa | 0 mm | - | 0 W/m² | - |
* Rain latest hour (hover to see other rain measurements)
** Current wind speed in m/s (hover to see current wind gust speed)